Regional Weather Roundup
Issued by NWS Sterling, VA

Home | Current Version | Previous Version | Text Only | Print | Product List | Glossary On
Versions: 1 2 3 4 5 6 7 8 9 10 11 12 13 14 15 16 17 18 19 20 21 22 23 24 25 26 27 28 29 30 31 32 33 34 35 36 37 38 39 40 41 42 43 44 45 46 47 48 49 50
000
ASUS41 KLWX 290310
RWRLWX

REGIONAL WEATHER ROUNDUP
NATIONAL WEATHER SERVICE BALTIMORE MD/WASHINGTON DC
1100 PM EDT THU AUG 28 2014

Note: "FAIR" indicates few or no clouds below 12,000 feet
with no significant weather and/or obstructions to visibility.
 TC=TEMPERATURE CELSIUS

 * =Non NWS site. Station does not report precipitation (e.g. rain,
    snow, etc.), thunder, or fog.

DCZ001-MDZ009-015-VAZ040>042-051-053>054-290400-
WASHINGTON METRO
  /KDAA//-FT BELVOIR

CITY           SKY/WX    TMP DP  RH WIND       PRES   REMARKS
WASHINGTON NAT CLEAR     74  53  48 N10       30.08R
DULLES         CLEAR     68  53  58 N5        30.09R
ANDREWS AFB    CLEAR     64  54  69 N6        30.08R
QUANTICO       CLEAR     72  55  55 N9        30.09R
COLLEGE PARK*  CLEAR     64  59  82 CALM      30.08R
LEESBURG*      CLEAR     68  57  68 N3        30.11R
MANASSAS*      CLEAR     64  57  77 NW6       30.09R
GAITHERSBURG*  CLEAR     61  54  77 CALM      30.13S

$$

MDZ006>007-011-014-290400-
BALTIMORE METRO

CITY           SKY/WX    TMP DP  RH WIND       PRES   REMARKS
BWI AIRPORT    PTCLDY    65  54  67 NW3       30.07R
MD SCIENCE CTR   N/A     74  51  44 MISG      30.08R
MARTIN STATE   CLEAR     66  55  68 CALM      30.08S
ANNAPOLIS      CLEAR     73  57  57 N8        30.07R
FORT MEADE*    CLEAR     59  55  88 CALM      30.10R

$$

MDZ012-015-019>023-290400-
MARYLAND EASTERN SHORE

CITY           SKY/WX    TMP DP  RH WIND       PRES   REMARKS
OCEAN CITY     CLEAR     67  60  78 N3        30.05R
SALISBURY      CLEAR     69  58  67 N5        30.06R
BAY BRIDGE AP*   N/A     70  55  60 CALM      30.07R
CAMBRIDGE*     CLEAR     72  55  56 CALM      30.06R
EASTON*        CLEAR     67  58  72 CALM      30.10

$$

MDZ017>025-290400-
SOUTHERN MARYLAND

CITY           SKY/WX    TMP DP  RH WIND       PRES   REMARKS
PATUXENT RIVER CLEAR     74  58  57 NE10      30.06R
ST INIGOES     CLEAR     72  57  59 VRB3      30.05R
LEONARDTOWN*   CLEAR     68  54  60 CALM      30.08R

$$

MDZ003>005-290400-
NORTH CENTRAL MARYLAND

CITY           SKY/WX    TMP DP  RH WIND       PRES   REMARKS
FREDERICK*     CLEAR     61  59  94 N5        30.12R
HAGERSTOWN APT CLEAR     65  52  62 NW6       30.11R
WESTMINSTER*   CLEAR     64  55  72 CALM      30.10S

$$

MDZ501>502-290400-
WESTERN MARYLAND

CITY           SKY/WX    TMP DP  RH WIND       PRES   REMARKS
OAKLAND*       CLEAR     57  52  82 W3        30.20R
CUMBERLAND*    CLEAR     61  52  72 CALM      30.18R

$$

VAZ025>031-290400-
SHENANDOAH VALLEY

CITY           SKY/WX    TMP DP  RH WIND       PRES   REMARKS
WINCHESTER*    CLEAR     64  52  63 NW6       30.11S
STAUNTON*      CLEAR     69  53  57 N5        30.13S

$$

WVZ021-048>050-054>055-290400-
EASTERN WEST VIRGINIA PANHANDLE

CITY           SKY/WX    TMP DP  RH WIND       PRES   REMARKS
MARTINSBURG    CLEAR     67  49  52 N3        30.12R
PETERSBURG*    NOT AVBL

$$

VAZ036>039-050-290400-
CENTRAL FOOTHILLS

CITY           SKY/WX    TMP DP  RH WIND       PRES   REMARKS
CHARLOTTESVILL PTCLDY    72  58  61 NE8       30.09R
ORANGE*        CLEAR     70  55  60 NE5       30.10R

$$

VAZ055>057-290400-
NORTH AND CENTRAL PIEDMONT

CITY           SKY/WX    TMP DP  RH WIND       PRES   REMARKS
FREDERICKSBRG* CLEAR     72  61  68 N5        30.07R
STAFFORD*      CLEAR     65  64  98 CALM      30.12R

$$

NCZ024-NYZ072-PAZ021-071-VAZ022-071-290400-
OTHER REGIONAL OBSERVATIONS

CITY           SKY/WX    TMP DP  RH WIND       PRES   REMARKS
NEW YORK CITY  CLEAR     69  45  41 VRB6      30.07R
PHILADELPHIA   PTCLDY    71  49  45 N14       30.07R
PITTSBURGH     PTCLDY    64  51  62 VRB5      30.15R
ROANOKE        CLEAR     78  60  53 CALM      30.10R
RICHMOND       CLOUDY    77  61  57 NE5       30.05R
RALEIGH        PTCLDY    76  71  85 CALM      30.02R

$$

ANZ530>537-290400-
MARINE OBSERVATIONS

STATION/POSITION TIME  TEMP    WIND        PRES
                       AIR SEA DIR/SP/G
                 (UTC) (F)     (DEG/KT/KT) (MB)
THOMAS PT LIGHT  0300   75 78   10/ 14/ 15 1018.8R
BALT KEY BRIDGE  0300   80     340/  9/ 10 1018.0R
COVE POINT       0300   76      60/ 14/ 17 1017.7R
LEWISETTA        0300   77 80   40/  7/ 10 1017.2R
SOLOMONS ISLAND  0300      81                N/A
PINEY POINT      0300           50/  5/  6   N/A

$$




USA.gov is the U.S. government's official web portal to all federal, state and local government web resources and services.